AF1E Weather Reports


time (UTC)temp
F
wind
direction
speed
knots
gust
knots
rain 1hr
in
rain 24hr
in
rain mn
in
humidity
%
barometer
mb
20260508145516 64 0.0 0.9 0.00 0.00 0.00 46 1016.4
20260508144516 64 0.0 0.9 0.00 0.00 0.00 49 1016.5
20260508143536 62 0.0 1.7 0.00 0.00 0.00 51 1016.5
20260508142516 61 0.0 1.7 0.00 0.00 0.00 51 1016.5
20260508141516 60 0.0 2.6 0.00 0.00 0.00 53 1016.5
20260508140516 59 0 0.9 2.6 0.00 0.01 0.00 56 1016.4
20260508135516 58 113 0.9 2.6 0.00 0.01 0.00 57 1016.4
20260508134516 58 0.0 1.7 0.00 0.01 0.00 62 1016.4
20260508133516 57 0.0 0.9 0.00 0.01 0.00 59 1016.4
20260508132515 57 0.0 2.6 0.00 0.01 0.00 63 1016.4
20260508131516 56 315 0.9 1.7 0.00 0.02 0.00 67 1016.3
20260508130516 55 338 0.9 1.7 0.00 0.02 0.00 68 1016.3
20260508125515 55 0.0 0.9 0.00 0.03 0.00 75 1016.3
20260508124516 54 0.0 0.9 0.00 0.03 0.00 76 1016.2
20260508123516 52 0.0 1.7 0.00 0.04 0.00 80 1016.2
20260508122516 51 338 0.9 2.6 0.00 0.07 0.00 86 1016.1
20260508121516 50 0.0 0.0 0.00 0.11 0.00 93 1016.0
20260508120536 48 0 0.9 1.7 0.00 0.16 0.00 96 1015.8
20260508115516 47 0.0 0.0 0.00 0.19 0.00 96 1015.7
20260508114515 45 0.0 0.0 0.00 0.21 0.00 95 1015.6
20260508113536 44 0.0 0.0 0.00 0.23 0.00 95 1015.5
20260508112516 44 0.0 0.0 0.00 0.23 0.00 95 1015.4
20260508111536 43 0.0 0.0 0.00 0.23 0.00 95 1015.2
20260508110515 42 0.0 0.0 0.00 0.23 0.00 94 1015.1
20260508105515 42 0.0 0.0 0.00 0.23 0.00 94 1014.9
20260508104516 42 0.0 0.0 0.00 0.23 0.00 94 1014.7
20260508103516 42 0.0 0.0 0.00 0.23 0.00 94 1014.4
20260508102516 42 0.0 0.0 0.00 0.23 0.00 94 1014.2
20260508101515 42 0.0 0.0 0.00 0.23 0.00 94 1014.1
20260508100535 42 0.0 0.0 0.00 0.23 0.00 94 1014.0
20260508095515 43 0.0 0.0 0.00 0.23 0.00 94 1014.0
20260508094537 43 0.0 0.0 0.00 0.23 0.00 94 1013.9
20260508093517 43 0.0 0.0 0.00 0.23 0.00 94 1013.8
20260508092538 43 0.0 0.0 0.00 0.23 0.00 94 1013.8
20260508091517 44 0.0 0.0 0.00 0.23 0.00 93 1013.8
20260508090517 44 0.0 0.0 0.00 0.23 0.00 93 1013.7
20260508085517 44 0.0 0.0 0.00 0.23 0.00 93 1013.5
20260508084517 44 0.0 0.0 0.00 0.24 0.00 93 1013.6
20260508083517 45 0.0 0.0 0.00 0.24 0.00 94 1013.6
20260508082517 45 0.0 0.0 0.00 0.24 0.00 93 1013.5
20260508081517 45 0.0 0.0 0.00 0.24 0.00 93 1013.5
20260508080517 45 0.0 0.0 0.00 0.24 0.00 93 1013.4
20260508075517 45 0.0 0.0 0.00 0.24 0.00 93 1013.3
20260508074537 45 0.0 0.9 0.00 0.24 0.00 93 1013.1
20260508073517 46 0.0 0.0 0.00 0.24 0.00 93 1013.1
20260508072517 46 0.0 0.0 0.00 0.24 0.00 93 1013.2
20260508071537 46 0.0 0.0 0.00 0.24 0.00 93 1013.1
20260508070517 46 0.0 0.0 0.00 0.24 0.00 93 1013.0
20260508065517 46 0.0 0.0 0.00 0.24 0.00 92 1012.9
20260508064517 47 0.0 0.0 0.00 0.24 0.00 92 1012.9
20260508063517 47 0.0 0.0 0.00 0.24 0.00 92 1012.9
20260508062517 47 0.0 0.0 0.00 0.25 0.00 92 1012.8
20260508061517 47 0.0 0.0 0.00 0.25 0.00 92 1012.8
20260508060517 47 0.0 0.0 0.00 0.25 0.00 92 1012.8
20260508055517 48 0.0 0.0 0.00 0.25 0.00 92 1012.8
20260508054517 48 0.0 0.0 0.00 0.25 0.00 91 1012.9
20260508053537 48 0.0 0.0 0.00 0.25 0.00 91 1012.7
20260508052517 48 0.0 0.0 0.00 0.26 0.00 90 1012.7
20260508051517 49 0.0 0.0 0.00 0.26 0.00 89 1012.6
20260508050517 49 0.0 0.0 0.00 0.27 0.00 89 1012.5
20260508045517 49 0.0 0.0 0.00 0.27 0.00 87 1012.4
20260508044517 50 0.0 0.0 0.00 0.28 0.00 86 1012.4
20260508043517 50 0.0 0.0 0.00 0.28 0.00 86 1012.3
20260508042517 50 0.0 0.0 0.00 0.28 0.00 86 1012.4
20260508041517 50 0.0 0.0 0.00 0.28 0.00 85 1012.3
20260508040517 50 0.0 0.0 0.00 0.28 0.00 85 1012.2
20260508035517 51 0.0 0.0 0.00 0.28 0.28 84 1012.3
20260508034517 51 0.0 0.0 0.00 0.28 0.28 84 1012.4
20260508033517 51 0.0 0.0 0.00 0.28 0.28 83 1012.1
20260508032517 52 0.0 0.9 0.00 0.28 0.28 83 1012.2
20260508031517 52 0.0 0.0 0.00 0.28 0.28 79 1012.1
20260508030517 52 0.0 0.0 0.00 0.28 0.28 80 1012.2
20260508025518 52 0.0 0.0 0.00 0.28 0.28 79 1012.0
20260508024517 53 0.0 0.0 0.00 0.30 0.28 78 1011.8
20260508023517 53 0.0 0.0 0.00 0.31 0.28 78 1011.7
20260508022517 53 0.0 0.0 0.00 0.32 0.28 77 1011.7
20260508021517 54 0.0 0.0 0.00 0.32 0.28 75 1011.6
20260508020517 55 0.0 0.0 0.00 0.33 0.28 74 1011.4
20260508015517 55 0.0 0.0 0.00 0.33 0.28 73 1011.3
20260508014517 56 0.0 0.0 0.00 0.34 0.28 72 1011.1
20260508013537 57 0.0 0.0 0.00 0.36 0.28 70 1010.8
20260508012557 58 0.0 0.0 0.00 0.37 0.28 67 1010.7
20260508011517 58 338 0.9 2.6 0.00 0.37 0.28 66 1010.5
20260508010517 59 0.0 0.9 0.00 0.37 0.28 66 1010.3
20260508005558 59 0 0.9 3.5 0.00 0.38 0.28 66 1010.1
20260508004517 60 23 0.9 2.6 0.00 0.38 0.28 68 1010.0
20260508003537 60 338 0.9 4.3 0.00 0.40 0.28 66 1009.8
20260508002517 61 0.0 1.7 0.00 0.42 0.28 66 1009.7
20260508001517 61 113 0.9 4.3 0.00 0.43 0.28 68 1009.6
20260508000516 61 0 0.9 3.5 0.00 0.44 0.28 81 1009.5
20260507235517 61 0 0.9 3.5 0.00 0.44 0.28 86 1009.6
20260507234517 62 0 0.9 2.6 0.00 0.44 0.28 86 1009.5
20260507233516 62 0.0 0.9 0.00 0.44 0.28 87 1009.3
20260507232517 62 0.0 0.9 0.00 0.44 0.28 86 1009.1
20260507231537 62 0.0 0.9 0.00 0.45 0.28 85 1008.9
20260507230517 62 0.0 2.6 0.00 0.46 0.28 85 1008.8
20260507225517 63 0.0 0.9 0.00 0.46 0.28 84 1008.7
20260507224536 63 0.0 2.6 0.00 0.47 0.28 83 1008.4
20260507223516 63 0.0 0.9 0.00 0.47 0.28 84 1008.1
20260507222517 62 45 0.9 5.2 0.00 0.47 0.28 83 1007.9
20260507221517 63 23 0.9 4.3 0.00 0.47 0.28 84 1007.9
20260507220516 63 23 0.9 2.6 0.00 0.47 0.28 83 1007.8
20260507215537 63 45 0.9 3.5 0.00 0.47 0.28 83 1007.7
20260507214516 63 45 0.9 4.3 0.00 0.47 0.28 83 1007.6
20260507213516 63 45 0.9 5.2 0.00 0.47 0.28 84 1007.3
20260507212517 63 45 0.9 3.5 0.00 0.47 0.28 83 1007.1
20260507211517 63 45 1.7 7.0 0.00 0.47 0.28 84 1007.1
20260507210516 63 45 0.9 3.5 0.00 0.47 0.28 86 1007.2
20260507205516 63 45 1.7 5.2 0.00 0.47 0.28 86 1007.3
20260507204516 64 45 1.7 4.3 0.00 0.47 0.28 85 1006.6
20260507203516 64 45 0.9 2.6 0.00 0.47 0.28 83 1006.6
20260507202516 65 45 0.9 2.6 0.00 0.47 0.28 83 1006.8
20260507201516 66 45 1.7 6.1 0.00 0.47 0.28 81 1006.4
20260507200516 69 45 1.7 7.0 0.00 0.47 0.28 75 1006.3
20260507195516 76 0.0 0.9 0.00 0.47 0.28 71 1006.1
20260507194516 76 248 1.7 2.6 0.00 0.47 0.28 69 1006.0
20260507193536 77 113 2.6 5.2 0.00 0.47 0.28 71 1005.5
20260507192516 77 135 1.7 4.3 0.00 0.47 0.28 70 1005.6
20260507191537 77 135 2.6 5.2 0.00 0.47 0.28 68 1005.8
20260507190516 76 0.0 1.7 0.00 0.47 0.28 68 1005.9
20260507185516 75 0.0 0.9 0.00 0.47 0.28 70 1006.1
20260507184516 76 113 1.7 3.5 0.00 0.47 0.28 68 1006.0
20260507183516 78 248 0.9 4.3 0.00 0.47 0.28 69 1006.1
20260507182516 77 135 1.7 4.3 0.00 0.47 0.28 64 1006.3
20260507181516 77 113 0.9 2.6 0.00 0.47 0.28 69 1006.3
20260507180516 77 225 0.9 2.6 0.00 0.47 0.28 67 1006.5
20260507175516 76 248 0.9 1.7 0.00 0.47 0.28 70 1006.4
20260507174516 74 248 0.9 1.7 0.00 0.47 0.28 74 1006.5
20260507173516 74 135 0.9 2.6 0.00 0.47 0.28 76 1006.6
20260507172516 73 248 0.9 2.6 0.00 0.47 0.28 76 1006.7
20260507171516 73 248 0.9 2.6 0.00 0.47 0.28 79 1006.9
20260507170516 73 135 0.9 4.3 0.00 0.47 0.28 76 1007.1
20260507165516 72 0.0 1.7 0.00 0.47 0.28 85 1007.3
20260507164556 71 0.0 1.7 0.00 0.49 0.28 84 1007.6
20260507163516 71 338 0.9 3.5 0.00 0.50 0.28 84 1007.5
20260507162516 71 0.0 1.7 0.00 0.51 0.28 84 1007.6
20260507161516 70 0.0 1.7 0.00 0.51 0.28 84 1007.5
20260507160516 70 0.0 0.9 0.00 0.51 0.28 89 1007.7
20260507155516 69 0.0 1.7 0.00 0.51 0.28 89 1007.3
20260507154516 68 0.0 2.6 0.00 0.51 0.28 90 1007.4
20260507153516 68 0.0 0.9 0.00 0.51 0.28 90 1007.1
20260507152536 67 113 0.9 3.5 0.00 0.51 0.28 92 1007.4
20260507151516 66 0.0 0.9 0.00 0.51 0.28 93 1007.5
20260507150516 65 0.0 0.0 0.01 0.51 0.28 94 1007.9